"Timestamp","TZ","WindDir_Mean (deg)","WindSpd_Mean (km/h)","WindSpd_Min (km/h)","WindSpd_Max (km/h)","Temp_Mean (deg)","RH_Mean (%)","MSLP_Mean (hPa)","Rain_Acc (mm)","Rain_Intensity (mm/h)","Hail_Acc (hits/cm2)","Hail_Intensity (hits/cm2hr)","Solar_Mean (W/m2)"
2020/05/14 00:00:00.013,n,185,5.04,4.32,6.12,17.6,71.3,1022.22,0,0,0,0,0.01915
2020/05/14 00:01:00.000,n,151,4.68,4.32,5.4,17.6,71.5,1022.12,0,0,0,0,0.023499
2020/05/14 00:02:00.000,n,202,2.52,2.16,2.52,17.6,71.4,1022.12,0,0,0,0,0.026093
2020/05/14 00:03:00.004,n,114,2.16,1.44,3.24,17.6,71.4,1022.12,0,0,0,0,0.01915
2020/05/14 00:04:00.002,n,153,2.88,2.52,3.6,17.6,71.4,1022.12,0,0,0,0,0.022659
2020/05/14 00:05:00.000,n,150,5.04,4.68,6.12,17.6,71.5,1022.02,0,0,0,0,0.023499
2020/05/14 00:06:00.000,n,141,2.16,1.8,2.52,17.6,71.7,1022.02,0,0,0,0,0.01915
2020/05/14 00:07:00.009,n,178,1.08,0,2.52,17.6,71.9,1022.02,0,0,0,0,0.022659
2020/05/14 00:08:00.006,n,163,0.36,0,0.72,17.6,71.9,1022.02,0,0,0,0,0.020866
2020/05/14 00:09:00.003,n,115,1.08,0.72,1.44,17.6,71.8,1022.12,0,0,0,0,0.020866
2020/05/14 00:10:00.000,n,142,0.72,0.36,0.72,17.6,71.7,1022.12,0,0,0,0,0.024376
2020/05/14 00:11:00.000,n,294,1.08,0.36,1.8,17.6,71.8,1022.12,0,0,0,0,0.023499
2020/05/14 00:12:00.000,n,212,1.44,0,2.16,17.6,71.8,1022.12,0,0,0,0,0.023499
2020/05/14 00:13:00.000,n,236,2.16,1.44,2.88,17.6,71.7,1022.12,0,0,0,0,0.01915
2020/05/14 00:14:00.004,n,260,4.32,3.6,4.32,17.6,71.8,1022.22,0,0,0,0,0.020866
2020/05/14 00:15:00.001,n,259,3.6,3.6,3.96,17.6,71.8,1022.22,0,0,0,0,0.023499
2020/05/14 00:16:00.000,n,260,3.96,3.6,4.32,17.6,71.9,1022.22,0,0,0,0,0.022659
2020/05/14 00:17:00.011,n,247,2.52,2.52,3.24,17.6,71.9,1022.22,0,0,0,0,0.015678
2020/05/14 00:18:00.008,n,272,3.6,2.88,3.96,17.6,72,1022.22,0,0,0,0,0.017395
2020/05/14 00:19:00.000,n,257,3.24,2.88,3.24,17.6,72.1,1022.22,0,0,0,0,0.020866
2020/05/14 00:20:00.002,n,271,2.16,1.44,3.24,17.6,72.3,1022.12,0,0,0,0,0.01915
2020/05/14 00:21:00.000,n,18,1.8,1.44,2.16,17.5,72.5,1022.12,0,0,0,0,0.017395
2020/05/14 00:22:00.000,n,261,1.08,0.72,1.08,17.5,72.8,1022.12,0,0,0,0,0.016518
2020/05/14 00:23:00.000,n,28,1.08,0.72,1.44,17.6,72.9,1022.12,0,0,0,0,0.01915
2020/05/14 00:24:00.007,n,53,1.8,1.08,2.88,17.6,73,1022.12,0,0,0,0,0.020866
2020/05/14 00:25:00.005,n,75,2.52,2.16,2.88,17.6,73.1,1022.12,0,0,0,0,0.01915
2020/05/14 00:26:00.002,n,287,2.16,1.44,2.52,17.6,73.1,1022.12,0,0,0,0,0.015678
2020/05/14 00:27:00.016,n,56,1.8,0.72,2.88,17.6,73.2,1022.12,0,0,0,0,0.029602
2020/05/14 00:28:00.000,n,30,2.88,1.8,3.96,17.6,73.1,1022.12,0,0,0,0,0.033989
2020/05/14 00:29:00.000,n,125,0.36,0.36,0.72,17.6,73,1022.22,0,0,0,0,0.033112
2020/05/14 00:30:00.002,n,250,1.08,0.72,1.44,17.6,73,1022.22,0,0,0,0,0.029602
2020/05/14 00:31:00.000,n,211,0.72,0.36,1.44,17.6,73,1022.22,0,0,0,0,0.033112
2020/05/14 00:32:00.000,n,283,2.88,2.52,3.24,17.6,72.7,1022.22,0,0,0,0,0.034828
2020/05/14 00:33:00.010,n,284,3.96,3.6,4.32,17.5,72.5,1022.22,0,0,0,0,0.028763
2020/05/14 00:34:00.007,n,290,2.16,1.44,2.52,17.5,72.6,1022.22,0,0,0,0,0.030479
2020/05/14 00:35:00.004,n,272,3.96,3.96,4.32,17.4,72.4,1022.22,0,0,0,0,0.033112
2020/05/14 00:36:00.001,n,249,4.68,3.96,5.04,17.4,72.3,1022.22,0,0,0,0,0.030479
2020/05/14 00:37:00.000,n,264,3.6,3.6,3.96,17.3,72.5,1022.22,0,0,0,0,0.027885
2020/05/14 00:38:00.000,n,192,1.44,1.08,2.16,17.3,72.4,1022.12,0,0,0,0,0.029602
2020/05/14 00:39:00.000,n,265,1.08,0.72,1.44,17.3,72.3,1022.12,0,0,0,0,0.027885
2020/05/14 00:40:00.005,n,129,1.08,0.72,1.44,17.3,72.3,1022.02,0,0,0,0,0.029602
2020/05/14 00:41:00.002,n,241,1.08,0.72,1.44,17.2,72.4,1022.02,0,0,0,0,0.030479
2020/05/14 00:42:00.000,n,158,4.32,3.6,4.68,17.2,72.4,1022.02,0,0,0,0,0.030479
2020/05/14 00:43:00.000,n,139,3.6,3.24,3.96,17.2,72.6,1022.02,0,0,0,0,0.027885
2020/05/14 00:44:00.010,n,157,2.52,1.44,3.24,17.2,72.7,1022.02,0,0,0,0,0.029602
2020/05/14 00:45:00.008,n,148,5.04,4.68,5.4,17.2,72.7,1021.92,0,0,0,0,0.027885
2020/05/14 00:46:00.000,n,131,2.88,1.8,3.96,17.2,72.8,1021.92,0,0,0,0,0.029602
2020/05/14 00:47:00.003,n,132,2.52,1.8,2.88,17.2,72.8,1022.02,0,0,0,0,0.029602
2020/05/14 00:48:00.000,n,195,1.44,1.08,1.8,17.2,72.8,1022.02,0,0,0,0,0.027885
2020/05/14 00:49:00.000,n,191,1.08,0.72,2.16,17.2,72.8,1022.02,0,0,0,0,0.026131
2020/05/14 00:50:00.000,n,105,2.16,1.44,2.52,17.2,72.9,1022.02,0,0,0,0,0.024414
2020/05/14 00:51:00.007,n,115,1.44,1.08,1.44,17.2,72.8,1022.12,0,0,0,0,0.030479
2020/05/14 00:52:00.005,n,227,0.72,0.36,0.72,17.2,72.7,1022.12,0,0,0,0,0.024414
2020/05/14 00:53:00.002,n,269,3.6,3.6,3.96,17.2,72.8,1022.12,0,0,0,0,0.028725
2020/05/14 00:54:00.015,n,269,3.96,3.6,4.68,17.1,72.8,1022.12,0,0,0,0,0.033989
2020/05/14 00:55:00.000,n,280,5.4,5.4,5.76,17.1,72.8,1022.22,0,0,0,0,0.035706
2020/05/14 00:56:00.000,n,268,3.24,2.88,3.6,17.1,72.7,1022.12,0,0,0,0,0.037422
2020/05/14 00:57:00.000,n,281,1.8,0.72,2.16,17.1,72.7,1022.12,0,0,0,0,0.038338
2020/05/14 00:58:00.004,n,262,4.32,3.6,5.04,17.1,72.6,1022.12,0,0,0,0,0.034828
2020/05/14 00:59:00.001,n,265,4.32,3.96,4.68,17.1,72.6,1022.12,0,0,0,0,0.037422
2020/05/14 01:00:00.000,n,297,1.44,1.08,1.44,17.1,72.6,1022.12,0,0,0,0,0.030479
2020/05/14 01:01:00.011,n,241,1.44,1.08,2.16,17,72.6,1022.02,0,0,0,0,0.033073
2020/05/14 01:02:00.009,n,298,1.44,1.08,1.8,17,72.8,1022.02,0,0,0,0,0.034828
2020/05/14 01:03:00.005,n,253,2.88,2.52,3.24,17,72.7,1022.02,0,0,0,0,0.033073
2020/05/14 01:04:00.002,n,283,3.6,3.24,4.32,17,72.7,1022.02,0,0,0,0,0.031357
2020/05/14 01:05:00.000,n,284,3.24,2.88,4.32,17,72.8,1022.12,0,0,0,0,0.033073
2020/05/14 01:06:00.000,n,304,3.24,2.88,3.6,17,74.2,1022.12,0,0,0,0,0.031357
2020/05/14 01:07:00.000,n,283,2.16,1.44,2.88,17.1,73.3,1022.12,0,0,0,0,0.031357
2020/05/14 01:08:00.006,n,269,2.16,2.16,2.16,17.1,73,1022.02,0,0,0,0,0.026131
2020/05/14 01:09:00.003,n,266,1.8,1.44,1.8,17,73,1022.12,0,0,0,0,0.02964
2020/05/14 01:10:00.001,n,266,3.24,2.88,3.24,17,73,1022.12,0,0,0,0,0.027008
2020/05/14 01:11:00.000,n,265,3.96,3.6,3.96,17,73,1022.12,0,0,0,0,0.02964
2020/05/14 01:12:00.012,n,262,4.68,4.68,5.04,17,73.1,1022.12,0,0,0,0,0.030479
2020/05/14 01:13:00.000,n,266,3.96,3.6,4.32,16.9,73.2,1022.12,0,0,0,0,0.031357
2020/05/14 01:14:00.000,n,267,2.88,2.52,3.24,16.9,73.2,1022.12,0,0,0,0,0.028725
2020/05/14 01:15:00.003,n,272,3.96,3.6,3.96,16.9,73.3,1022.12,0,0,0,0,0.02964
2020/05/14 01:16:00.001,n,276,3.24,2.52,3.96,16.9,73.4,1022.12,0,0,0,0,0.026131
2020/05/14 01:17:00.000,n,265,2.16,1.44,2.16,16.9,73.4,1022.12,0,0,0,0,0.027847
2020/05/14 01:18:00.010,n,271,2.52,2.16,3.24,16.9,73.7,1022.12,0,0,0,0,0.025253
2020/05/14 01:19:00.007,n,247,2.52,2.16,2.88,16.9,73.7,1022.12,0,0,0,0,0.023499
2020/05/14 01:20:00.005,n,70,0.36,0,0.36,16.9,73.6,1022.12,0,0,0,0,0.020905
2020/05/14 01:21:00.002,n,241,0.72,0.72,0.72,16.8,73.6,1022.12,0,0,0,0,0.026131
2020/05/14 01:22:00.000,n,282,0.72,0.72,1.08,16.8,73.8,1022.12,0,0,0,0,0.027847
2020/05/14 01:23:00.000,n,292,1.08,0.72,1.08,16.8,73.8,1022.12,0,0,0,0,0.027008
2020/05/14 01:24:00.000,n,247,2.88,2.16,3.96,16.8,73.9,1022.12,0,0,0,0,0.026131
2020/05/14 01:25:00.006,n,115,1.8,1.44,2.16,16.8,73.7,1022.12,0,0,0,0,0.023499
2020/05/14 01:26:00.004,n,109,0.72,0.36,1.8,16.8,73.6,1022.02,0,0,0,0,0.024414
2020/05/14 01:27:00.001,n,217,0.72,0.36,1.8,16.8,73.7,1021.92,0,0,0,0,0.020905
2020/05/14 01:28:00.000,n,166,3.24,2.16,4.68,16.8,73.7,1021.92,0,0,0,0,0.024414
2020/05/14 01:29:00.011,n,209,2.52,2.16,3.24,16.8,73.8,1021.92,0,0,0,0,0.026131
2020/05/14 01:30:00.009,n,226,2.88,2.16,3.6,16.8,73.8,1021.82,0,0,0,0,0.01915
2020/05/14 01:31:00.000,n,198,1.44,0.36,2.52,16.8,73.8,1021.82,0,0,0,0,0.021782
2020/05/14 01:32:00.002,n,195,5.4,5.04,6.48,16.8,73.7,1021.82,0,0,0,0,0.018272
2020/05/14 01:33:00.000,n,161,1.44,0.72,1.8,16.8,73.6,1021.92,0,0,0,0,0.033989
2020/05/14 01:34:00.000,n,180,2.88,2.52,3.24,16.8,73.5,1021.92,0,0,0,0,0.034866
2020/05/14 01:35:00.000,n,337,1.08,0.36,1.44,16.8,73.7,1021.92,0,0,0,0,0.038338
2020/05/14 01:36:00.009,n,137,2.16,0.72,2.52,16.8,73.7,1021.92,0,0,0,0,0.02964
2020/05/14 01:37:00.006,n,130,1.44,0.36,2.52,16.9,73.7,1021.92,0,0,0,0,0.027885
2020/05/14 01:38:00.005,n,112,1.44,0.72,2.16,16.9,73.7,1021.92,0,0,0,0,0.028725
2020/05/14 01:39:00.002,n,158,3.24,1.44,3.96,16.9,73.6,1021.92,0,0,0,0,0.030479
2020/05/14 01:40:00.000,n,35,0.72,0.36,0.72,16.9,73.6,1021.92,0,0,0,0,0.02964
2020/05/14 01:41:00.000,n,176,2.88,2.16,3.6,16.9,73.8,1021.92,0,0,0,0,0.033073
2020/05/14 01:42:00.000,n,177,4.32,3.6,4.68,16.9,73.5,1021.82,0,0,0,0,0.033073
2020/05/14 01:43:00.006,n,123,1.44,1.44,1.44,16.9,73.4,1021.82,0,0,0,0,0.031357
2020/05/14 01:44:00.003,n,174,2.16,1.8,2.16,16.9,73.4,1021.82,0,0,0,0,0.030479
2020/05/14 01:45:00.000,n,106,2.16,1.8,2.52,16.9,73.3,1021.82,0,0,0,0,0.031357
2020/05/14 01:46:00.013,n,213,2.16,1.8,3.6,16.9,73.2,1021.92,0,0,0,0,0.030479
2020/05/14 01:47:00.010,n,210,3.24,2.52,3.6,16.9,73.1,1021.92,0,0,0,0,0.031357
2020/05/14 01:48:00.007,n,200,1.8,1.44,2.16,16.8,73,1021.92,0,0,0,0,0.028725
2020/05/14 01:49:00.000,n,208,3.24,2.52,3.24,16.9,73.1,1021.92,0,0,0,0,0.030479
2020/05/14 01:50:00.000,n,296,2.16,1.44,2.52,16.9,73.2,1021.92,0,0,0,0,0.027885
2020/05/14 01:51:00.000,n,262,1.8,1.44,2.52,16.9,73.2,1021.92,0,0,0,0,0.02964
2020/05/14 01:52:00.000,n,266,3.6,2.88,3.96,16.9,73.2,1021.82,0,0,0,0,0.027008
2020/05/14 01:53:00.008,n,150,2.16,2.16,2.88,16.8,73.2,1021.82,0,0,0,0,0.027885
2020/05/14 01:54:00.005,n,145,2.52,1.08,3.24,16.8,73.3,1021.82,0,0,0,0,0.028725
2020/05/14 01:55:00.003,n,149,0.72,0.36,1.44,16.8,73.3,1021.72,0,0,0,0,0.027885
2020/05/14 01:56:00.000,n,177,2.52,1.44,3.6,16.8,73.3,1021.72,0,0,0,0,0.025291
2020/05/14 01:57:00.014,n,136,2.52,1.44,2.88,16.8,73.3,1021.72,0,0,0,0,0.02964
2020/05/14 01:58:00.000,n,106,1.44,0.72,2.16,16.8,73.2,1021.72,0,0,0,0,0.027008
2020/05/14 01:59:00.000,n,198,1.44,1.44,2.16,16.8,73.3,1021.62,0,0,0,0,0.026131
2020/05/14 02:00:00.000,n,114,1.08,0.36,2.16,16.8,73.3,1021.62,0,0,0,0,0.028725
2020/05/14 02:01:00.003,n,127,2.16,1.8,2.16,16.700002,73.3,1021.62,0,0,0,0,0.025291
2020/05/14 02:02:00.000,n,166,3.6,3.24,3.96,16.700002,73.5,1021.62,0,0,0,0,0.023499
2020/05/14 02:03:00.000,n,283,1.8,1.8,2.16,16.700002,73.5,1021.62,0,0,0,0,0.025291
2020/05/14 02:04:00.010,n,109,0.72,0.36,1.08,16.700002,73.6,1021.62,0,0,0,0,0.026131
2020/05/14 02:05:00.008,n,248,0,0,0.36,16.700002,73.6,1021.62,0,0,0,0,0.028725
2020/05/14 02:06:00.005,n,184,2.16,2.16,2.16,16.700002,73.8,1021.62,0,0,0,0,0.022659
2020/05/14 02:07:00.002,n,202,1.08,0.72,1.44,16.700002,73.8,1021.62,0,0,0,0,0.022659
2020/05/14 02:08:00.000,n,172,0.72,0.72,1.08,16.700002,73.9,1021.62,0,0,0,0,0.027008
2020/05/14 02:09:00.000,n,149,0.72,0.36,1.08,16.6,73.9,1021.62,0,0,0,0,0.025291
2020/05/14 02:10:00.000,n,128,1.08,0.36,1.44,16.6,74.2,1021.62,0,0,0,0,0.023499
2020/05/14 02:11:00.006,n,137,2.16,2.16,2.52,16.6,74.7,1021.62,0,0,0,0,0.024376
2020/05/14 02:12:00.004,n,159,3.96,3.6,4.32,16.6,75,1021.62,0,0,0,0,0.022659
2020/05/14 02:13:00.000,n,156,2.88,1.8,4.32,16.6,75.3,1021.62,0,0,0,0,0.024376
2020/05/14 02:14:00.013,n,158,2.52,1.8,2.88,16.6,75.4,1021.62,0,0,0,0,0.024376
2020/05/14 02:15:00.010,n,171,2.88,2.52,3.6,16.5,75.7,1021.62,0,0,0,0,0.027008
2020/05/14 02:16:00.000,n,162,1.8,1.08,2.52,16.5,75.9,1021.62,0,0,0,0,0.035706
2020/05/14 02:17:00.001,n,56,0.36,0.36,0.36,16.5,75.9,1021.72,0,0,0,0,0.030441
2020/05/14 02:18:00.000,n,325,1.08,0.36,1.44,16.5,76.3,1021.72,0,0,0,0,0.033073
2020/05/14 02:19:00.000,n,70,1.44,1.08,1.8,16.5,76.2,1021.72,0,0,0,0,0.030441
2020/05/14 02:20:00.000,n,49,1.08,0.36,1.8,16.4,76.2,1021.72,0,0,0,0,0.030441
2020/05/14 02:21:00.007,n,86,2.16,1.44,2.88,16.4,76.1,1021.72,0,0,0,0,0.032234
2020/05/14 02:22:00.005,n,56,1.08,0.36,2.16,16.4,76.1,1021.62,0,0,0,0,0.030441
2020/05/14 02:23:00.002,n,136,0.72,0.72,1.08,16.4,76.2,1021.72,0,0,0,0,0.032234
2020/05/14 02:24:00.015,n,12,0.36,0,0.36,16.4,76.3,1021.62,0,0,0,0,0.030441
2020/05/14 02:25:00.000,n,296,1.44,1.44,1.8,16.4,76.5,1021.72,0,0,0,0,0.027008
2020/05/14 02:26:00.000,n,290,2.52,1.8,3.24,16.4,76.6,1021.72,0,0,0,0,0.027885
2020/05/14 02:27:00.000,n,258,2.88,2.52,3.24,16.4,76.5,1021.72,0,0,0,0,0.028725
2020/05/14 02:28:00.006,n,265,3.96,3.96,4.32,16.4,76.6,1021.82,0,0,0,0,0.025253
2020/05/14 02:29:00.003,n,256,3.96,3.6,4.32,16.4,76.6,1021.82,0,0,0,0,0.027008
2020/05/14 02:30:00.000,n,257,4.68,4.32,5.04,16.4,76.7,1021.92,0,0,0,0,0.024376
2020/05/14 02:31:00.000,n,259,6.48,5.04,7.2,16.4,76.7,1021.92,0,0,0,0,0.027008
2020/05/14 02:32:00.011,n,274,5.04,4.32,5.4,16.4,76.8,1021.92,0,0,0,0,0.027885
2020/05/14 02:33:00.008,n,256,5.4,4.32,6.48,16.4,76.9,1022.02,0,0,0,0,0.025253
2020/05/14 02:34:00.000,n,259,5.76,5.04,6.48,16.3,77,1021.92,0,0,0,0,0.025253
2020/05/14 02:35:00.001,n,312,2.88,1.44,3.24,16.3,77.1,1021.92,0,0,0,0,0.027885
2020/05/14 02:36:00.000,n,274,2.52,1.8,2.88,16.3,77.1,1021.92,0,0,0,0,0.029602
2020/05/14 02:37:00.000,n,273,4.32,3.24,5.04,16.3,77,1021.92,0,0,0,0,0.027008
2020/05/14 02:38:00.000,n,320,3.96,2.52,5.4,16.3,77.4,1021.82,0,0,0,0,0.021782
2020/05/14 02:39:00.007,n,227,3.24,2.52,3.6,16.3,77.3,1021.82,0,0,0,0,0.024376
2020/05/14 02:40:00.004,n,284,2.88,2.16,3.24,16.3,77.2,1021.82,0,0,0,0,0.025253
2020/05/14 02:41:00.000,n,168,0.36,0,0.72,16.3,77.2,1021.72,0,0,0,0,0.027885
2020/05/14 02:42:00.014,n,225,1.44,0.72,2.16,16.3,77,1021.82,0,0,0,0,0.023499
2020/05/14 02:43:00.000,n,40,0.36,0.36,0.72,16.3,76.9,1021.82,0,0,0,0,0.025253
2020/05/14 02:44:00.000,n,166,4.32,3.6,4.68,16.3,77,1021.82,0,0,0,0,0.029602
2020/05/14 02:45:00.000,n,143,2.16,1.08,2.52,16.3,76.8,1021.82,0,0,0,0,0.023499
2020/05/14 02:46:00.002,n,190,1.44,1.08,1.8,16.3,76.8,1021.82,0,0,0,0,0.023499
2020/05/14 02:47:00.000,n,153,2.16,1.8,2.52,16.3,76.9,1021.82,0,0,0,0,0.029602
2020/05/14 02:48:00.000,n,121,2.52,2.16,2.88,16.3,76.9,1021.82,0,0,0,0,0.027008
2020/05/14 02:49:00.010,n,183,1.08,0.36,1.44,16.3,76.8,1021.82,0,0,0,0,0.027008
2020/05/14 02:50:00.006,n,143,1.08,1.08,1.8,16.3,76.8,1021.82,0,0,0,0,0.027885
2020/05/14 02:51:00.003,n,240,1.44,1.08,1.8,16.3,76.7,1021.82,0,0,0,0,0.025253
2020/05/14 02:52:00.001,n,321,1.8,1.44,2.52,16.3,76.9,1021.82,0,0,0,0,0.027885
2020/05/14 02:53:00.000,n,195,2.16,1.44,2.52,16.3,77,1021.82,0,0,0,0,0.025253
2020/05/14 02:54:00.000,n,264,3.24,2.52,5.04,16.3,76.8,1021.82,0,0,0,0,0.025253
2020/05/14 02:55:00.000,n,194,2.88,2.52,3.6,16.3,76.8,1021.92,0,0,0,0,0.026131
2020/05/14 02:56:00.004,n,227,1.08,0.36,1.44,16.3,76.8,1021.92,0,0,0,0,0.026131
2020/05/14 02:57:00.002,n,226,1.08,0.72,1.44,16.3,76.8,1022.02,0,0,0,0,0.026131
2020/05/14 02:58:00.000,n,157,2.52,2.16,2.88,16.3,76.8,1022.02,0,0,0,0,0.025253
2020/05/14 02:59:00.013,n,225,0.36,0,0.36,16.3,76.9,1022.02,0,0,0,0,0.024376
2020/05/14 03:00:00.010,n,280,1.44,1.44,1.8,16.3,76.9,1022.02,0,0,0,0,0.026131
2020/05/14 03:01:00.000,n,220,0.72,0.36,1.08,16.200002,76.9,1022.02,0,0,0,0,0.022659
2020/05/14 03:02:00.000,n,246,0.72,0.72,1.08,16.200002,76.9,1022.02,0,0,0,0,0.024376
2020/05/14 03:03:00.001,n,75,1.8,1.44,2.52,16.200002,77.2,1022.02,0,0,0,0,0.023499
2020/05/14 03:04:00.000,n,101,1.8,1.8,2.16,16.3,77.1,1022.02,0,0,0,0,0.023499
2020/05/14 03:05:00.000,n,211,0.36,0.36,0.72,16.3,77.1,1022.02,0,0,0,0,0.020905
2020/05/14 03:06:00.010,n,315,0.72,0.36,1.08,16.3,77.1,1022.02,0,0,0,0,0.021782
2020/05/14 03:07:00.007,n,145,2.88,2.16,3.24,16.3,77.1,1022.02,0,0,0,0,0.025253
2020/05/14 03:08:00.004,n,138,1.44,1.08,1.8,16.200002,77.2,1022.02,0,0,0,0,0.026131
2020/05/14 03:09:00.001,n,138,2.16,1.8,2.52,16.200002,77.3,1022.02,0,0,0,0,0.026131
2020/05/14 03:10:00.000,n,27,1.08,0.72,1.44,16.200002,77.4,1022.02,0,0,0,0,0.025253
2020/05/14 03:11:00.000,n,143,1.8,1.44,2.16,16.200002,77.4,1022.02,0,0,0,0,0.020905
2020/05/14 03:12:00.000,n,121,1.8,1.44,2.16,16.200002,77.6,1022.02,0,0,0,0,0.023499
2020/05/14 03:13:00.006,n,90,1.08,0.72,1.44,16.200002,77.6,1022.02,0,0,0,0,0.026131
2020/05/14 03:14:00.004,n,157,0.72,0.72,1.44,16.200002,77.7,1022.02,0,0,0,0,0.027008
2020/05/14 03:15:00.000,n,161,1.44,1.44,1.8,16.200002,77.7,1022.02,0,0,0,0,0.027008
2020/05/14 03:16:00.000,n,151,2.16,1.08,2.88,16.200002,77.8,1022.02,0,0,0,0,0.021782
2020/05/14 03:17:00.010,n,174,2.16,1.44,2.52,16.1,78,1022.02,0,0,0,0,0.023499
2020/05/14 03:18:00.008,n,173,3.24,2.88,3.6,16.1,78.1,1022.02,0,0,0,0,0.023499
2020/05/14 03:19:00.000,n,178,2.16,1.8,2.16,16.1,78.2,1022.02,0,0,0,0,0.022659
2020/05/14 03:20:00.000,n,178,2.52,2.16,2.88,16.1,78.3,1022.02,0,0,0,0,0.022659
2020/05/14 03:21:00.000,n,206,1.44,0.36,2.16,16.1,78.3,1022.02,0,0,0,0,0.022659
2020/05/14 03:22:00.000,n,173,0.72,0.72,0.72,16.1,78.3,1022.02,0,0,0,0,0.026131
2020/05/14 03:23:00.008,n,196,1.44,1.44,1.8,16.1,78.3,1022.02,0,0,0,0,0.024376
2020/05/14 03:24:00.006,n,237,1.08,0.72,1.08,16.1,78.3,1022.12,0,0,0,0,0.024376
2020/05/14 03:25:00.003,n,132,0.72,0.36,0.72,16.1,78.4,1022.12,0,0,0,0,0.028725
2020/05/14 03:26:00.000,n,142,2.16,2.16,2.52,16.1,78.4,1022.12,0,0,0,0,0.027008
2020/05/14 03:27:00.013,n,82,0.36,0.36,0.36,16.1,78.5,1022.12,0,0,0,0,0.021782
2020/05/14 03:28:00.000,n,114,0.72,0.72,0.72,16.1,78.4,1022.12,0,0,0,0,0.022659
2020/05/14 03:29:00.000,n,133,3.6,3.24,3.96,16.1,78.5,1022.12,0,0,0,0,0.023499
2020/05/14 03:30:00.000,n,183,1.08,1.08,1.44,16.1,78.5,1022.12,0,0,0,0,0.026131
2020/05/14 03:31:00.002,n,162,3.24,1.8,4.32,16.1,78.5,1022.12,0,0,0,0,0.027008
2020/05/14 03:32:00.001,n,153,2.52,2.16,2.88,16.1,78.5,1022.12,0,0,0,0,0.023499
2020/05/14 03:33:00.000,n,166,2.88,2.88,3.24,16.1,78.3,1022.12,0,0,0,0,0.023499
2020/05/14 03:34:00.010,n,200,3.6,3.24,4.32,16.1,78.3,1022.12,0,0,0,0,0.027008
2020/05/14 03:35:00.009,n,76,0.72,0.36,1.08,16.1,78.3,1022.12,0,0,0,0,0.027008
2020/05/14 03:36:00.006,n,170,1.8,1.44,2.16,16.1,78.3,1022.12,0,0,0,0,0.024376
2020/05/14 03:37:00.000,n,154,1.8,1.44,2.52,16.1,78.3,1022.12,0,0,0,0,0.025253
2020/05/14 03:38:00.000,n,283,2.52,1.8,3.24,16.1,78.4,1022.12,0,0,0,0,0.024376
2020/05/14 03:39:00.000,n,207,0.72,0.36,1.08,16.1,79,1022.12,0,0,0,0,0.027885
2020/05/14 03:40:00.000,n,130,2.16,1.08,2.52,16.1,78.6,1022.12,0,0,0,0,0.025253
2020/05/14 03:41:00.008,n,211,0.72,0.36,0.72,16.1,78.3,1022.12,0,0,0,0,0.027885
2020/05/14 03:42:00.005,n,35,0.72,0.36,1.08,16.1,78.4,1022.22,0,0,0,0,0.027008
2020/05/14 03:43:00.002,n,30,0.36,0.36,0.72,16.200002,78.5,1022.22,0,0,0,0,0.027885
2020/05/14 03:44:00.000,n,276,0.72,0.72,1.44,16.200002,78.3,1022.22,0,0,0,0,0.027885
2020/05/14 03:45:00.013,n,291,1.8,0.72,2.16,16.200002,78.2,1022.22,0,0,0,0,0.027885
2020/05/14 03:46:00.000,n,93,1.08,0.72,1.44,16.200002,78.1,1022.22,0,0,0,0,0.027885
2020/05/14 03:47:00.000,n,51,0.72,0.36,1.44,16.1,78,1022.22,0,0,0,0,0.026131
2020/05/14 03:48:00.004,n,290,2.52,2.16,2.88,16.1,78,1022.22,0,0,0,0,0.028725
2020/05/14 03:49:00.001,n,25,0.36,0,0.36,16.1,78,1022.22,0,0,0,0,0.025253
2020/05/14 03:50:00.000,n,257,2.52,2.16,3.24,16.1,77.9,1022.22,0,0,0,0,0.026131
2020/05/14 03:51:00.000,n,84,1.44,1.08,1.8,16.1,78.1,1022.22,0,0,0,0,0.028725
2020/05/14 03:52:00.008,n,311,1.08,1.08,1.08,16.1,78.1,1022.22,0,0,0,0,0.027008
2020/05/14 03:53:00.005,n,356,3.24,2.88,3.96,16.1,78.2,1022.22,0,0,0,0,0.027008
2020/05/14 03:54:00.002,n,150,1.08,0.36,1.44,16.1,78,1022.12,0,0,0,0,0.025253
2020/05/14 03:55:00.000,n,131,2.52,1.08,3.24,16.1,78,1022.12,0,0,0,0,0.024376
2020/05/14 03:56:00.000,n,218,0.36,0.36,0.72,16.1,78.1,1022.12,0,0,0,0,0.030441
2020/05/14 03:57:00.000,n,209,0.72,0,1.08,16.1,78,1022.12,0,0,0,0,0.025253
2020/05/14 03:58:00.000,n,122,1.44,1.08,1.8,16.1,78,1022.12,0,0,0,0,0.025253
2020/05/14 03:59:00.006,n,226,2.16,1.44,2.52,16.1,77.9,1022.12,0,0,0,0,0.028725
2020/05/14 04:00:00.003,n,20,0.36,0.36,0.72,16.1,77.8,1022.12,0,0,0,0,0.026131
2020/05/14 04:01:00.001,n,279,1.8,1.44,1.8,16.1,78,1022.12,0,0,0,0,0.024376
2020/05/14 04:02:00.014,n,119,0.36,0.36,0.72,16.1,77.9,1022.12,0,0,0,0,0.027885
2020/05/14 04:03:00.011,n,287,1.08,0.72,1.44,16.1,77.9,1022.22,0,0,0,0,0.024376
2020/05/14 04:04:00.000,n,271,2.16,1.44,2.52,16,77.9,1022.22,0,0,0,0,0.021782
2020/05/14 04:05:00.000,n,280,1.44,1.44,1.8,16,78,1022.22,0,0,0,0,0.021782
2020/05/14 04:06:00.001,n,267,2.16,1.44,2.88,16,78.1,1022.22,0,0,0,0,0.025253
2020/05/14 04:07:00.000,n,275,3.6,3.24,4.32,16,78,1022.22,0,0,0,0,0.021782
2020/05/14 04:08:00.000,n,265,3.24,2.88,3.6,16,78,1022.22,0,0,0,0,0.024376
2020/05/14 04:09:00.007,n,273,5.76,5.04,6.12,16,77.9,1022.22,0,0,0,0,0.024376
2020/05/14 04:10:00.004,n,251,1.8,0.72,2.52,16,77.9,1022.22,0,0,0,0,0.030479
2020/05/14 04:11:00.000,n,278,2.52,2.52,2.88,16,77.9,1022.22,0,0,0,0,0.032234
2020/05/14 04:12:00.013,n,263,2.88,2.16,3.24,16,78.1,1022.22,0,0,0,0,0.040054
2020/05/14 04:13:00.000,n,270,1.8,1.08,2.88,16,78.1,1022.22,0,0,0,0,0.032234
2020/05/14 04:14:00.000,n,249,2.16,1.44,2.52,16,78.3,1022.22,0,0,0,0,0.033112
2020/05/14 04:15:00.000,n,146,2.16,1.44,2.52,16,78,1022.22,0,0,0,0,0.029602
2020/05/14 04:16:00.003,n,152,1.44,1.08,1.8,16,77.9,1022.22,0,0,0,0,0.029602
2020/05/14 04:17:00.000,n,124,1.8,1.08,2.16,16,77.9,1022.22,0,0,0,0,0.027885
2020/05/14 04:18:00.000,n,201,1.08,0.72,2.16,16,77.8,1022.12,0,0,0,0,0.027885
2020/05/14 04:19:00.010,n,143,1.08,0.72,1.44,16,77.8,1022.12,0,0,0,0,0.029602
2020/05/14 04:20:00.007,n,136,2.52,2.16,2.52,16,77.8,1022.12,0,0,0,0,0.029602
2020/05/14 04:21:00.004,n,135,1.44,1.08,1.44,16,77.8,1022.12,0,0,0,0,0.029602
2020/05/14 04:22:00.000,n,167,1.44,1.08,2.16,16,77.9,1022.12,0,0,0,0,0.031357
2020/05/14 04:23:00.000,n,140,2.16,1.44,2.16,16,78,1022.12,0,0,0,0,0.031357
2020/05/14 04:24:00.000,n,149,2.52,1.8,2.52,16,78,1022.12,0,0,0,0,0.030479
2020/05/14 04:25:00.000,n,207,2.52,1.8,2.88,16,78,1022.22,0,0,0,0,0.032234
2020/05/14 04:26:00.006,n,146,3.24,2.52,3.6,16,78.1,1022.22,0,0,0,0,0.033951
2020/05/14 04:27:00.003,n,161,2.52,1.44,3.24,16,78.2,1022.22,0,0,0,0,0.032234
2020/05/14 04:28:00.000,n,149,1.08,0.36,1.8,16,78.2,1022.22,0,0,0,0,0.034828
2020/05/14 04:29:00.013,n,149,2.88,2.52,3.24,16,78.2,1022.22,0,0,0,0,0.030479
2020/05/14 04:30:00.010,n,179,2.16,2.16,2.52,16,78.2,1022.22,0,0,0,0,0.031357
2020/05/14 04:31:00.000,n,146,2.52,2.16,2.88,15.9,78.3,1022.22,0,0,0,0,0.02697
2020/05/14 04:32:00.000,n,131,3.6,3.24,3.96,15.9,78.3,1022.22,0,0,0,0,0.033112
2020/05/14 04:33:00.002,n,162,1.8,1.44,2.52,15.9,78.3,1022.22,0,0,0,0,0.030479
2020/05/14 04:34:00.000,n,147,2.16,1.44,2.88,15.9,78.3,1022.22,0,0,0,0,0.027885
2020/05/14 04:35:00.000,n,134,1.44,1.44,1.8,15.9,78.2,1022.32,0,0,0,0,0.030479
2020/05/14 04:36:00.010,n,144,2.16,1.8,2.16,15.9,78.3,1022.22,0,0,0,0,0.029602
2020/05/14 04:37:00.007,n,3,0.72,0,1.08,15.9,78.4,1022.22,0,0,0,0,0.027885
2020/05/14 04:38:00.004,n,305,1.08,0.72,1.8,15.9,79,1022.22,0,0,0,0,0.022621
2020/05/14 04:39:00.002,n,156,1.8,1.8,2.16,15.9,78.6,1022.22,0,0,0,0,0.027885
2020/05/14 04:40:00.000,n,150,2.88,2.52,2.88,15.8,78.5,1022.22,0,0,0,0,0.026131
2020/05/14 04:41:00.000,n,163,2.52,2.52,2.88,15.8,78.5,1022.22,0,0,0,0,0.025253
2020/05/14 04:42:00.000,n,181,2.16,2.16,2.52,15.8,78.5,1022.22,0,0,0,0,0.024376
2020/05/14 04:43:00.006,n,154,4.32,3.6,4.68,15.8,78.6,1022.22,0,0,0,0,0.022621
2020/05/14 04:44:00.004,n,165,2.88,2.52,3.6,15.7,78.6,1022.22,0,0,0,0,0.027885
2020/05/14 04:45:00.001,n,190,3.24,3.24,3.6,15.7,78.7,1022.22,0,0,0,0,0.023537
2020/05/14 04:46:00.000,n,146,3.24,2.52,3.96,15.7,78.8,1022.32,0,0,0,0,0.022621
2020/05/14 04:47:00.011,n,193,2.52,2.52,2.88,15.7,78.8,1022.32,0,0,0,0,0.026131
2020/05/14 04:48:00.008,n,133,2.52,2.16,2.88,15.7,78.8,1022.32,0,0,0,0,0.025253
2020/05/14 04:49:00.000,n,180,1.8,1.8,2.16,15.7,78.9,1022.32,0,0,0,0,0.02697
2020/05/14 04:50:00.002,n,165,3.24,1.8,3.6,15.7,78.9,1022.32,0,0,0,0,0.023537
2020/05/14 04:51:00.000,n,159,2.88,1.08,4.32,15.7,79.1,1022.32,0,0,0,0,0.024376
2020/05/14 04:52:00.000,n,155,2.52,1.08,3.96,15.7,79,1022.32,0,0,0,0,0.02697
2020/05/14 04:53:00.000,n,172,5.76,5.4,6.12,15.7,79,1022.32,0,0,0,0,0.020027
2020/05/14 04:54:00.006,n,158,6.12,5.4,6.48,15.7,79,1022.32,0,0,0,0,0.025253
2020/05/14 04:55:00.004,n,122,1.08,0.36,1.8,15.6,79.1,1022.32,0,0,0,0,0.021782